Location: Oberwangen
(47.4286°N, 8.9679°E)
Time: 23:39:05
(UTC+00:00)

COSMOS 2428 - Pass Details

Date: 20 June 2021
Orbit: 844 x 858 km, 70.9° (Epoch: 23 July)

Event Time Altitude Azimuth Distance (km) Brightness Sun altitude
Exits shadow 21:09:09 - 199° (SSW) 3,166 5.3 -12.7°
Reaches altitude 10° 21:10:56 10° 197° (SSW) 2,483 4.8 -12.9°
Maximum altitude 21:16:38 74° 114° (ESE) 896 2.7 -13.4°
Drops below altitude 10° 21:22:22 10° 31° (NNE) 2,503 5.6 -13.9°
Sets 21:24:50 0° 29° (NNE) 3,443 6.3 -14.1°
